Regional Weather Roundup
Issued by NWS Huntsville, AL

Home | Current Version | Previous Version | Text Only | Print | Product List | Glossary On
Versions: 1 2 3 4 5 6 7 8 9 10 11 12 13 14 15 16 17 18 19 20 21 22 23 24 25 26 27 28 29 30 31 32 33 34 35 36 37 38 39 40
000
ASUS44 KHUN 280610
RWRHUN

WEATHER ROUNDUP FOR THE TENNESSEE VALLEY
NATIONAL WEATHER SERVICE HUNTSVILLE AL
1200 AM CST SUN DEC 28 2014

ALZ001>004-280700-
NORTHWEST ALABAMA

CITY           SKY/WX    TMP DP  RH WIND       PRES   REMARKS
COURTLAND HCN    N/A     54 N/A N/A S10         N/A
RUSSELLVILLE     N/A     54 N/A N/A MISG        N/A
SHOALS AIRPORT LGT RAIN  54  51  90 SE3       30.04F
6HR MIN TEMP:  51; 6HR MAX TEMP:  55; 6HR PCP:  0.33;

SHOALS TVA RES   N/A     52 N/A N/A MISG        N/A
$$

ALZ005>007-016-280700-
NORTH CENTRAL ALABAMA

CITY           SKY/WX    TMP DP  RH WIND       PRES   REMARKS
CULLMAN AG STN   N/A     52 N/A N/A S3          N/A
DECATUR AP     RAIN      54  52  93 S10       30.07F
6HR MIN TEMP:  52; 6HR MAX TEMP:  55; 6HR PCP:  0.25;

HUNTSVILLE AP  RAIN      55  54  96 S7        30.07F FOG
6HR MIN TEMP:  53; 6HR MAX TEMP:  57; 6HR PCP:  0.21;

HUN NWS/UAH      N/A     53  51  93 SE5         N/A
MERIDIANVILLE  LGT RAIN  52  48  87 CALM      30.08R
REDSTONE ARSN  LGT RAIN  54  52  94 S5        30.07F FOG
VINEMONT AP    RAIN      52  51  97 SE10      30.09F
$$

ALZ008>010-280700-
NORTHEAST ALABAMA

CITY           SKY/WX    TMP DP  RH WIND       PRES   REMARKS
ALBERTVILLE    RAIN      52  52 100 SE7       30.10F
FORT PAYNE     RAIN      50  46  87 CALM      30.12F
SCOTTSBORO AP  LGT RAIN  50  50 100 CALM      30.10F
VALLEY HEAD      N/A     52 N/A N/A MISG        N/A
$$

TNZ076-096-097-280700-
SOUTHEASTERN MIDDLE TENNESSEE

CITY           SKY/WX    TMP DP  RH WIND       PRES   REMARKS
TULLAHOMA      CLOUDY    52  50  93 SW6       30.08S
WINCHESTER     MOCLDY    55  52  88 S10       30.08R
$$

...SURROUNDING SITES...

CITY           SKY/WX    TMP DP  RH WIND       PRES   REMARKS
ATLANTA        HVY RAIN  54  52  94 CALM      30.16R FOG
ANNISTON       RAIN      53  51  93 N5        30.15R FOG
BIRMINGHAM     HVY RAIN  55  54  96 SE8       30.13F FOG
CHATTANOOGA    LGT RAIN  52  50  93 VRB6      30.11F
CORINTH        CLOUDY    54  52  94 CALM      30.07F
DALTON         LGT RAIN  50  50 100 CALM      30.16F
GADSDEN        CLOUDY    52  48  87 SW5       30.15R
GOLDEN TRNGL   CLOUDY    55  54  94 CALM      30.04F
HALEYVILLE     RAIN      52  52 100 CALM      30.09F
JACKSON TN     CLOUDY    48  45  87 N5        30.09F
LEWISBURG      CLOUDY    50  49  96 NW3       30.09S
MEMPHIS        LGT RAIN  48  45  89 NW10      30.12R
MURFREESBORO   CLOUDY    48  48 100 CALM      30.09S
NASHVILLE      LGT RAIN  50  49  96 CALM      30.10S FOG
OXFORD MS      CLOUDY    48  48 100 N9        30.08F
ROME           RAIN      50  50 100 N5        30.15S FOG
SAVANNAH       CLOUDY    52  52 100 CALM      30.09S
TUPELO         LGT RAIN  55  53  93 NW3       30.07S
TUSCALOOSA     LGT RAIN  56  54  93 SE6       30.08F
$$

...GULF COAST WEATHER...

CITY           SKY/WX    TMP DP  RH WIND       PRES   REMARKS
GULFPORT       FOG       63  63 100 SE5       30.08F VSB 1/2
PASCAGOULA     LGT RAIN  65  65 100 S7        30.08F FOG
MOBILE         CLOUDY    59  59 100 SE9       30.09F
GULF SHORES    CLOUDY    66  65  95 E12       30.10F
DESTIN         CLOUDY    62  56  80 E3        30.13F
PANAMA CITY    CLOUDY    62  59  89 E6        30.14F
APPALACHICOLA  CLOUDY    67  58  72 E3        30.15F
$$



USA.gov is the U.S. government's official web portal to all federal, state and local government web resources and services.